Tracking 25995 objects as of 19-Aug-2022
HD Live streaming from Space Station
objects crossing your sky now

THOR ABLESTAR DEB *

Track THOR ABLESTAR DEB * now!
10-day predictions


NORAD ID: 21970
Int'l Code: 1961-015ML
Perigee: 394.8 km
Apogee: 719.2 km
Inclination: 66.0 °
Period: 95.6 minutes
Semi major axis: 6927 km
RCS: 0.0158 m2 (small)
Launch date: June 29, 1961
Source: United States (US)
Launch site: AIR FORCE EASTERN TEST RANGE (AFETR)

Note: This is SATELLITE DEBRIS
aabbcc
Your satellite tracking list
Your tracking list is empty




NASA's NSSDC Master Catalog

Two Line Element Set (TLE):
1 21970U 61015ML  22230.14327224  .00014799  00000-0  55407-3 0  9990
2 21970  65.9837  27.2798 0234126 228.9077 129.1628 15.05550564634241
Source of the keplerian elements: AFSPC